| time (UTC) | temp C | wind direction | speed KPH | gust KPH | rain 1hr cm | rain 24hr cm | rain mn cm | humidity % | barometer mb |
| 20260510141705 | 18 | 49 | 6.4 | 17.7 | 0.00 | 0.08 | 0.05 | 58 | 1008.7 |
| 20260510141205 | 18 | 355 | 4.8 | 16.1 | 0.00 | 0.08 | 0.05 | 56 | 1008.7 |
| 20260510140705 | 18 | 10 | 4.8 | 16.1 | 0.00 | 0.08 | 0.05 | 56 | 1008.8 |
| 20260510135705 | 18 | 93 | 3.2 | 11.3 | 0.03 | 0.08 | 0.05 | 57 | 1009.1 |
| 20260510135205 | 18 | 26 | 3.2 | 14.5 | 0.03 | 0.08 | 0.05 | 56 | 1009.2 |
| 20260510134705 | 18 | 37 | 4.8 | 14.5 | 0.03 | 0.08 | 0.05 | 56 | 1009.3 |
| 20260510134205 | 18 | 19 | 4.8 | 14.5 | 0.03 | 0.08 | 0.05 | 56 | 1009.3 |
| 20260510133720 | 18 | 0 | 3.2 | 14.5 | 0.03 | 0.08 | 0.05 | 54 | 1009.4 |
| 20260510132205 | 18 | 5 | 3.2 | 14.5 | 0.03 | 0.08 | 0.05 | 55 | 1009.4 |
| 20260510131723 | 18 | 5 | 4.8 | 14.5 | 0.03 | 0.08 | 0.05 | 56 | 1009.5 |
| 20260510131205 | 18 | 5 | 3.2 | 12.9 | 0.03 | 0.08 | 0.05 | 57 | 1009.6 |
| 20260510130706 | 18 | 13 | 4.8 | 12.9 | 0.03 | 0.08 | 0.05 | 58 | 1009.7 |
| 20260510130205 | 18 | 14 | 4.8 | 12.9 | 0.00 | 0.05 | 0.03 | 57 | 1009.8 |
| 20260510125205 | 18 | 33 | 4.8 | 17.7 | 0.00 | 0.05 | 0.03 | 58 | 1010.0 |
| 20260510124705 | 18 | 31 | 4.8 | 17.7 | 0.00 | 0.05 | 0.03 | 58 | 1010.2 |
| 20260510124205 | 18 | 41 | 3.2 | 16.1 | 0.00 | 0.05 | 0.03 | 58 | 1010.1 |
| 20260510123205 | 18 | 49 | 6.4 | 16.1 | 0.00 | 0.08 | 0.03 | 57 | 1010.2 |
| 20260510122705 | 18 | 9 | 4.8 | 16.1 | 0.00 | 0.08 | 0.03 | 55 | 1010.3 |
| 20260510122205 | 18 | 37 | 4.8 | 16.1 | 0.00 | 0.08 | 0.03 | 56 | 1010.4 |
| 20260510121206 | 18 | 42 | 3.2 | 11.3 | 0.00 | 0.08 | 0.03 | 58 | 1010.5 |
| 20260510120705 | 18 | 35 | 4.8 | 11.3 | 0.00 | 0.08 | 0.03 | 57 | 1010.6 |
| 20260510120205 | 17 | 53 | 3.2 | 17.7 | 0.00 | 0.08 | 0.03 | 59 | 1010.6 |
| 20260510115705 | 17 | 34 | 3.2 | 17.7 | 0.00 | 0.08 | 0.03 | 59 | 1010.7 |
| 20260510115206 | 17 | 29 | 3.2 | 17.7 | 0.00 | 0.08 | 0.03 | 58 | 1010.7 |
| 20260510114705 | 17 | 112 | 3.2 | 14.5 | 0.00 | 0.08 | 0.03 | 57 | 1010.8 |
| 20260510114205 | 17 | 344 | 3.2 | 16.1 | 0.00 | 0.08 | 0.03 | 57 | 1010.9 |
| 20260510113205 | 17 | 9 | 6.4 | 14.5 | 0.00 | 0.08 | 0.03 | 58 | 1011.0 |
| 20260510112205 | 17 | 0 | 4.8 | 16.1 | 0.00 | 0.08 | 0.03 | 59 | 1011.0 |
| 20260510111704 | 17 | 18 | 4.8 | 16.1 | 0.00 | 0.08 | 0.03 | 58 | 1011.1 |
| 20260510111206 | 17 | 355 | 1.6 | 16.1 | 0.00 | 0.08 | 0.03 | 60 | 1011.1 |
| 20260510110705 | 17 | 355 | 0.0 | 0.0 | 0.00 | 0.08 | 0.03 | 59 | 1011.1 |
| 20260510110205 | 17 | 0 | 0.0 | 0.0 | 0.00 | 0.08 | 0.03 | 60 | 1011.1 |
| 20260510105705 | 16 | 13 | 0.0 | 0.0 | 0.00 | 0.08 | 0.03 | 60 | 1011.1 |
| 20260510105205 | 16 | 5 | 0.0 | 0.0 | 0.00 | 0.08 | 0.03 | 59 | 1011.3 |
| 20260510104705 | 17 | 0 | 0.0 | 0.0 | 0.00 | 0.08 | 0.03 | 59 | 1011.3 |
| 20260510104205 | 17 | 10 | 0.0 | 0.0 | 0.00 | 0.08 | 0.03 | 60 | 1011.4 |
| 20260510103205 | 16 | 10 | 0.0 | 0.0 | 0.00 | 0.08 | 0.03 | 61 | 1011.4 |
| 20260510102704 | 16 | 355 | 0.0 | 0.0 | 0.00 | 0.08 | 0.03 | 61 | 1011.5 |
| 20260510102206 | 16 | 38 | 0.0 | 0.0 | 0.00 | 0.08 | 0.03 | 64 | 1011.5 |
| 20260510101206 | 16 | 34 | 0.0 | 0.0 | 0.00 | 0.08 | 0.03 | 66 | 1011.6 |
| 20260510100706 | 16 | 38 | 0.0 | 0.0 | 0.00 | 0.08 | 0.03 | 65 | 1011.6 |
| 20260510100205 | 16 | 38 | 0.0 | 0.0 | 0.00 | 0.08 | 0.03 | 66 | 1011.6 |
| 20260510095705 | 16 | 38 | 0.0 | 0.0 | 0.00 | 0.08 | 0.03 | 65 | 1011.7 |
| 20260510095205 | 16 | 40 | 0.0 | 0.0 | 0.00 | 0.08 | 0.03 | 65 | 1011.7 |
| 20260510094705 | 16 | 40 | 0.0 | 0.0 | 0.00 | 0.08 | 0.03 | 66 | 1011.8 |
| 20260510094206 | 15 | 44 | 0.0 | 0.0 | 0.00 | 0.08 | 0.03 | 67 | 1011.8 |
| 20260510093707 | 15 | 44 | 0.0 | 0.0 | 0.00 | 0.08 | 0.03 | 67 | 1011.9 |
| 20260510093205 | 15 | 9 | 0.0 | 0.0 | 0.00 | 0.08 | 0.03 | 68 | 1011.9 |
| 20260510092709 | 15 | 78 | 0.0 | 0.0 | 0.00 | 0.08 | 0.03 | 68 | 1012.0 |
| 20260510092205 | 15 | 10 | 0.0 | 0.0 | 0.00 | 0.08 | 0.03 | 68 | 1012.1 |
| 20260510091705 | 15 | 0 | 0.0 | 0.0 | 0.00 | 0.08 | 0.03 | 69 | 1012.1 |
| 20260510091205 | 15 | 0 | 0.0 | 0.0 | 0.00 | 0.08 | 0.03 | 71 | 1012.2 |
| 20260510090706 | 15 | 351 | 0.0 | 0.0 | 0.00 | 0.08 | 0.03 | 71 | 1012.1 |
| 20260510090205 | 15 | 35 | 0.0 | 0.0 | 0.00 | 0.08 | 0.03 | 73 | 1012.2 |
| 20260510085705 | 14 | 35 | 0.0 | 0.0 | 0.00 | 0.08 | 0.03 | 73 | 1012.2 |
| 20260510085206 | 14 | 41 | 0.0 | 0.0 | 0.00 | 0.08 | 0.03 | 75 | 1012.2 |
| 20260510084705 | 14 | 41 | 0.0 | 0.0 | 0.00 | 0.08 | 0.03 | 75 | 1012.2 |
| 20260510084208 | 14 | 43 | 0.0 | 0.0 | 0.00 | 0.10 | 0.03 | 75 | 1012.2 |
| 20260510083708 | 14 | 43 | 0.0 | 0.0 | 0.00 | 0.10 | 0.03 | 75 | 1012.3 |
| 20260510083205 | 14 | 43 | 0.0 | 0.0 | 0.00 | 0.10 | 0.03 | 75 | 1012.4 |
| 20260510082205 | 13 | 39 | 0.0 | 0.0 | 0.00 | 0.10 | 0.03 | 76 | 1012.5 |
| 20260510080705 | 13 | 42 | 0.0 | 8.0 | 0.00 | 0.10 | 0.03 | 78 | 1012.5 |
| 20260510075705 | 12 | 42 | 3.2 | 11.3 | 0.00 | 0.10 | 0.03 | 79 | 1012.4 |
| 20260510075206 | 12 | 42 | 4.8 | 11.3 | 0.00 | 0.10 | 0.03 | 79 | 1012.4 |
| 20260510074206 | 12 | 66 | 3.2 | 6.4 | 0.00 | 0.10 | 0.03 | 79 | 1012.4 |
| 20260510073710 | 12 | 71 | 1.6 | 8.0 | 0.00 | 0.10 | 0.03 | 79 | 1012.4 |
| 20260510073206 | 12 | 71 | 1.6 | 8.0 | 0.00 | 0.10 | 0.03 | 80 | 1012.5 |
| 20260510072206 | 12 | 71 | 1.6 | 8.0 | 0.00 | 0.10 | 0.03 | 80 | 1012.6 |
| 20260510071704 | 11 | 71 | 1.6 | 8.0 | 0.00 | 0.10 | 0.03 | 80 | 1012.5 |
| 20260510071205 | 11 | 71 | 1.6 | 8.0 | 0.00 | 0.10 | 0.03 | 80 | 1012.5 |
| 20260510070205 | 11 | 72 | 1.6 | 6.4 | 0.00 | 0.10 | 0.03 | 80 | 1012.5 |
| 20260510065704 | 11 | 72 | 3.2 | 6.4 | 0.00 | 0.10 | 0.03 | 80 | 1012.5 |
| 20260510065205 | 11 | 72 | 3.2 | 6.4 | 0.00 | 0.10 | 0.03 | 80 | 1012.5 |
| 20260510064706 | 11 | 72 | 1.6 | 6.4 | 0.00 | 0.10 | 0.03 | 80 | 1012.5 |
| 20260510064206 | 11 | 73 | 0.0 | 4.8 | 0.00 | 0.10 | 0.03 | 80 | 1012.4 |
| 20260510063705 | 11 | 73 | 0.0 | 4.8 | 0.00 | 0.10 | 0.03 | 80 | 1012.4 |
| 20260510063205 | 11 | 73 | 0.0 | 4.8 | 0.00 | 0.13 | 0.03 | 80 | 1012.3 |
| 20260510062706 | 11 | 73 | 0.0 | 6.4 | 0.00 | 0.13 | 0.03 | 80 | 1012.4 |
| 20260510061705 | 10 | 73 | 1.6 | 6.4 | 0.00 | 0.13 | 0.03 | 81 | 1012.3 |
| 20260510061208 | 10 | 73 | 1.6 | 6.4 | 0.00 | 0.13 | 0.03 | 81 | 1012.3 |
| 20260510060707 | 10 | 73 | 1.6 | 6.4 | 0.00 | 0.13 | 0.03 | 81 | 1012.3 |
| 20260510060205 | 10 | 74 | 1.6 | 6.4 | 0.00 | 0.13 | 0.03 | 81 | 1012.3 |
| 20260510055704 | 10 | 74 | 1.6 | 4.8 | 0.00 | 0.13 | 0.03 | 81 | 1012.2 |
| 20260510055205 | 10 | 74 | 1.6 | 6.4 | 0.00 | 0.13 | 0.03 | 82 | 1012.2 |
| 20260510054705 | 10 | 74 | 1.6 | 6.4 | 0.00 | 0.13 | 0.03 | 82 | 1012.2 |
| 20260510054205 | 10 | 74 | 1.6 | 3.2 | 0.00 | 0.13 | 0.03 | 82 | 1012.2 |
| 20260510053705 | 10 | 74 | 0.0 | 3.2 | 0.00 | 0.13 | 0.03 | 82 | 1012.3 |
| 20260510052706 | 9 | 74 | 0.0 | 4.8 | 0.00 | 0.13 | 0.03 | 82 | 1012.3 |
| 20260510052206 | 9 | 74 | 0.0 | 4.8 | 0.00 | 0.13 | 0.03 | 82 | 1012.3 |
| 20260510051205 | 9 | 74 | 0.0 | 1.6 | 0.00 | 0.13 | 0.03 | 81 | 1012.2 |
| 20260510050705 | 9 | 5 | 0.0 | 0.0 | 0.00 | 0.13 | 0.03 | 81 | 1012.3 |
| 20260510045705 | 9 | 5 | 0.0 | 0.0 | 0.00 | 0.13 | 0.03 | 82 | 1012.2 |
| 20260510045205 | 9 | 5 | 0.0 | 0.0 | 0.00 | 0.13 | 0.03 | 82 | 1012.3 |
| 20260510044706 | 9 | 5 | 0.0 | 0.0 | 0.00 | 0.13 | 0.03 | 82 | 1012.3 |
| 20260510044205 | 9 | 5 | 0.0 | 0.0 | 0.00 | 0.13 | 0.03 | 82 | 1012.3 |
| 20260510042705 | 9 | 5 | 0.0 | 1.6 | 0.00 | 0.13 | 0.03 | 81 | 1012.4 |
| 20260510042205 | 9 | 5 | 0.0 | 1.6 | 0.03 | 0.13 | 0.03 | 81 | 1012.3 |
| 20260510041706 | 9 | 5 | 0.0 | 1.6 | 0.03 | 0.13 | 0.03 | 81 | 1012.4 |
| 20260510040705 | 9 | 5 | 0.0 | 0.0 | 0.03 | 0.13 | 0.03 | 82 | 1012.4 |
| 20260510040206 | 9 | 5 | 0.0 | 0.0 | 0.03 | 0.13 | 0.03 | 82 | 1012.5 |
| 20260510035205 | 9 | 5 | 0.0 | 0.0 | 0.03 | 0.13 | 0.03 | 82 | 1012.4 |
| 20260510034705 | 9 | 5 | 0.0 | 0.0 | 0.03 | 0.13 | 0.03 | 82 | 1012.4 |
| 20260510034206 | 9 | 5 | 0.0 | 0.0 | 0.03 | 0.13 | 0.03 | 82 | 1012.5 |
| 20260510033706 | 9 | 5 | 0.0 | 0.0 | 0.03 | 0.13 | 0.03 | 82 | 1012.5 |
| 20260510033205 | 9 | 5 | 0.0 | 0.0 | 0.03 | 0.13 | 0.03 | 82 | 1012.5 |
| 20260510031207 | 9 | 5 | 0.0 | 0.0 | 0.00 | 0.10 | 0.00 | 82 | 1012.4 |
| 20260510030705 | 9 | 5 | 0.0 | 0.0 | 0.00 | 0.10 | 0.00 | 82 | 1012.5 |
| 20260510025206 | 9 | 5 | 0.0 | 0.0 | 0.00 | 0.10 | 0.00 | 82 | 1012.5 |
| 20260510024705 | 9 | 5 | 0.0 | 1.6 | 0.00 | 0.10 | 0.00 | 82 | 1012.6 |
| 20260510024205 | 9 | 5 | 0.0 | 3.2 | 0.00 | 0.10 | 0.00 | 82 | 1012.6 |
| 20260510022705 | 9 | 5 | 0.0 | 3.2 | 0.00 | 0.10 | 0.00 | 82 | 1012.7 |
| 20260510022205 | 9 | 5 | 0.0 | 0.0 | 0.00 | 0.10 | 0.00 | 82 | 1012.7 |
| 20260510021205 | 9 | 5 | 0.0 | 0.0 | 0.00 | 0.10 | 0.00 | 82 | 1012.6 |
| 20260510020728 | 9 | 5 | 0.0 | 0.0 | 0.00 | 0.10 | 0.00 | 82 | 1012.7 |
| 20260510020206 | 9 | 5 | 0.0 | 0.0 | 0.00 | 0.10 | 0.00 | 82 | 1012.7 |
| 20260510015705 | 9 | 5 | 0.0 | 0.0 | 0.00 | 0.10 | 0.00 | 82 | 1012.7 |
| 20260510015206 | 9 | 5 | 0.0 | 0.0 | 0.00 | 0.10 | 0.00 | 81 | 1012.9 |
| 20260510014705 | 9 | 5 | 0.0 | 0.0 | 0.00 | 0.10 | 0.00 | 81 | 1012.9 |
| 20260510014207 | 9 | 5 | 0.0 | 0.0 | 0.00 | 0.10 | 0.00 | 81 | 1012.9 |
| 20260510013705 | 9 | 5 | 0.0 | 0.0 | 0.00 | 0.10 | 0.00 | 81 | 1012.9 |
| 20260510012205 | 9 | 5 | 0.0 | 0.0 | 0.00 | 0.10 | 0.00 | 81 | 1013.0 |
| 20260510011705 | 10 | 5 | 0.0 | 0.0 | 0.00 | 0.10 | 0.00 | 81 | 1013.0 |
| 20260510011204 | 10 | 5 | 0.0 | 0.0 | 0.00 | 0.10 | 0.00 | 81 | 1013.0 |
| 20260510010733 | 10 | 5 | 0.0 | 0.0 | 0.00 | 0.10 | 0.00 | 81 | 1013.1 |
| 20260510010205 | 10 | 5 | 0.0 | 0.0 | 0.00 | 0.10 | 0.00 | 81 | 1013.1 |
| 20260510005705 | 10 | 5 | 0.0 | 0.0 | 0.00 | 0.10 | 0.00 | 81 | 1013.1 |
| 20260510005205 | 10 | 5 | 0.0 | 0.0 | 0.00 | 0.10 | 0.00 | 81 | 1013.0 |
| 20260510003205 | 10 | 5 | 0.0 | 0.0 | 0.00 | 0.10 | 0.00 | 80 | 1013.1 |
| 20260510002705 | 10 | 5 | 0.0 | 0.0 | 0.00 | 0.10 | 0.00 | 80 | 1013.1 |
| 20260510001705 | 10 | 5 | 0.0 | 0.0 | 0.00 | 0.13 | 0.00 | 80 | 1013.2 |
| 20260510001205 | 10 | 5 | 0.0 | 0.0 | 0.00 | 0.13 | 0.00 | 80 | 1013.2 |
| 20260510000705 | 10 | 5 | 0.0 | 0.0 | 0.00 | 0.13 | 0.00 | 79 | 1013.3 |
| 20260510000222 | 10 | 5 | 0.0 | 0.0 | 0.00 | 0.13 | 0.00 | 79 | 1013.3 |
| 20260509235705 | 10 | 5 | 0.0 | 0.0 | 0.00 | 0.13 | 0.00 | 79 | 1013.4 |
| 20260509235205 | 10 | 5 | 0.0 | 0.0 | 0.00 | 0.13 | 0.00 | 78 | 1013.4 |
| 20260509234705 | 11 | 5 | 0.0 | 0.0 | 0.00 | 0.13 | 0.00 | 78 | 1013.5 |
| 20260509234205 | 11 | 5 | 0.0 | 0.0 | 0.00 | 0.13 | 0.00 | 78 | 1013.5 |
| 20260509233705 | 11 | 5 | 0.0 | 0.0 | 0.00 | 0.13 | 0.00 | 78 | 1013.6 |
| 20260509232706 | 11 | 5 | 0.0 | 0.0 | 0.00 | 0.13 | 0.00 | 77 | 1013.6 |
| 20260509232205 | 11 | 5 | 0.0 | 0.0 | 0.00 | 0.13 | 0.00 | 77 | 1013.6 |
| 20260509231705 | 11 | 5 | 0.0 | 0.0 | 0.00 | 0.13 | 0.00 | 76 | 1013.6 |
| 20260509231206 | 11 | 5 | 0.0 | 0.0 | 0.00 | 0.13 | 0.00 | 76 | 1013.6 |
| 20260509230705 | 11 | 5 | 0.0 | 0.0 | 0.00 | 0.13 | 0.00 | 76 | 1013.7 |
| 20260509225705 | 12 | 5 | 0.0 | 0.0 | 0.00 | 0.13 | 0.00 | 75 | 1013.7 |
| 20260509224705 | 12 | 5 | 0.0 | 0.0 | 0.00 | 0.13 | 0.00 | 74 | 1013.8 |
| 20260509224208 | 12 | 5 | 0.0 | 0.0 | 0.00 | 0.13 | 0.00 | 74 | 1013.8 |
| 20260509223708 | 12 | 5 | 0.0 | 0.0 | 0.00 | 0.13 | 0.00 | 74 | 1013.8 |
| 20260509223206 | 12 | 5 | 0.0 | 0.0 | 0.00 | 0.13 | 0.00 | 74 | 1013.8 |
| 20260509222705 | 12 | 5 | 0.0 | 0.0 | 0.00 | 0.13 | 0.00 | 73 | 1013.8 |
| 20260509222205 | 12 | 5 | 0.0 | 0.0 | 0.00 | 0.13 | 0.00 | 72 | 1013.9 |
| 20260509215705 | 13 | 5 | 0.0 | 0.0 | 0.00 | 0.13 | 0.13 | 72 | 1014.0 |
| 20260509215205 | 13 | 5 | 0.0 | 1.6 | 0.00 | 0.13 | 0.13 | 71 | 1014.0 |
| 20260509214706 | 13 | 5 | 0.0 | 1.6 | 0.00 | 0.13 | 0.13 | 71 | 1014.0 |
| 20260509214205 | 13 | 5 | 0.0 | 1.6 | 0.00 | 0.13 | 0.13 | 71 | 1014.1 |
| 20260509213705 | 13 | 5 | 0.0 | 0.0 | 0.00 | 0.13 | 0.13 | 70 | 1014.1 |
| 20260509212705 | 13 | 5 | 0.0 | 1.6 | 0.03 | 0.13 | 0.13 | 69 | 1014.2 |
| 20260509212205 | 13 | 5 | 0.0 | 1.6 | 0.03 | 0.13 | 0.13 | 69 | 1014.2 |
| 20260509211705 | 13 | 5 | 0.0 | 1.6 | 0.03 | 0.13 | 0.13 | 69 | 1014.2 |
| 20260509210205 | 13 | 5 | 0.0 | 1.6 | 0.03 | 0.13 | 0.13 | 67 | 1014.1 |
| 20260509205705 | 13 | 5 | 0.0 | 1.6 | 0.03 | 0.13 | 0.13 | 67 | 1014.1 |
| 20260509205206 | 13 | 5 | 0.0 | 3.2 | 0.03 | 0.13 | 0.13 | 67 | 1014.1 |
| 20260509204205 | 14 | 5 | 0.0 | 3.2 | 0.03 | 0.13 | 0.13 | 67 | 1014.2 |
| 20260509203706 | 14 | 5 | 0.0 | 3.2 | 0.03 | 0.13 | 0.13 | 67 | 1014.1 |
| 20260509203205 | 14 | 5 | 0.0 | 3.2 | 0.00 | 0.10 | 0.10 | 66 | 1014.2 |
| 20260509202205 | 14 | 5 | 0.0 | 3.2 | 0.00 | 0.10 | 0.10 | 66 | 1014.1 |
| 20260509201705 | 14 | 5 | 0.0 | 3.2 | 0.00 | 0.10 | 0.10 | 66 | 1014.0 |
| 20260509201206 | 14 | 5 | 0.0 | 3.2 | 0.00 | 0.10 | 0.10 | 65 | 1014.0 |
| 20260509200705 | 15 | 5 | 0.0 | 3.2 | 0.00 | 0.10 | 0.10 | 65 | 1014.2 |
| 20260509195705 | 15 | 5 | 0.0 | 1.6 | 0.00 | 0.10 | 0.10 | 64 | 1014.1 |
| 20260509195205 | 15 | 5 | 0.0 | 1.6 | 0.00 | 0.10 | 0.10 | 63 | 1014.1 |
| 20260509194705 | 15 | 5 | 0.0 | 1.6 | 0.00 | 0.10 | 0.10 | 63 | 1014.0 |
| 20260509194205 | 15 | 5 | 0.0 | 1.6 | 0.00 | 0.13 | 0.10 | 63 | 1014.0 |
| 20260509193714 | 15 | 5 | 0.0 | 1.6 | 0.00 | 0.13 | 0.10 | 62 | 1014.0 |
| 20260509193206 | 16 | 5 | 0.0 | 3.2 | 0.00 | 0.13 | 0.10 | 61 | 1014.0 |
| 20260509192705 | 16 | 5 | 0.0 | 3.2 | 0.00 | 0.13 | 0.10 | 61 | 1013.9 |
| 20260509191704 | 16 | 5 | 0.0 | 3.2 | 0.00 | 0.13 | 0.10 | 59 | 1013.8 |
| 20260509191205 | 16 | 5 | 0.0 | 3.2 | 0.00 | 0.13 | 0.10 | 59 | 1013.8 |
| 20260509190705 | 16 | 5 | 0.0 | 4.8 | 0.00 | 0.13 | 0.10 | 58 | 1013.9 |
| 20260509185705 | 17 | 5 | 0.0 | 4.8 | 0.00 | 0.13 | 0.10 | 56 | 1013.9 |
| 20260509184705 | 17 | 5 | 0.0 | 8.0 | 0.00 | 0.13 | 0.10 | 55 | 1014.0 |
| 20260509184206 | 17 | 5 | 1.6 | 8.0 | 0.00 | 0.13 | 0.10 | 54 | 1013.9 |
| 20260509183705 | 17 | 5 | 3.2 | 8.0 | 0.00 | 0.13 | 0.10 | 54 | 1013.8 |
| 20260509183205 | 18 | 5 | 1.6 | 8.0 | 0.00 | 0.13 | 0.10 | 53 | 1013.7 |
| 20260509182705 | 18 | 5 | 3.2 | 8.0 | 0.00 | 0.13 | 0.10 | 52 | 1013.7 |
| 20260509182205 | 18 | 5 | 1.6 | 6.4 | 0.00 | 0.13 | 0.10 | 52 | 1013.6 |
| 20260509181705 | 18 | 5 | 1.6 | 8.0 | 0.00 | 0.13 | 0.10 | 52 | 1013.6 |
| 20260509181205 | 18 | 5 | 1.6 | 8.0 | 0.00 | 0.13 | 0.10 | 51 | 1013.5 |
| 20260509180705 | 18 | 5 | 1.6 | 8.0 | 0.00 | 0.13 | 0.10 | 51 | 1013.4 |
| 20260509180205 | 18 | 5 | 1.6 | 8.0 | 0.00 | 0.13 | 0.10 | 50 | 1013.4 |
| 20260509175705 | 18 | 5 | 3.2 | 9.7 | 0.00 | 0.13 | 0.10 | 50 | 1013.5 |
| 20260509174705 | 18 | 5 | 3.2 | 9.7 | 0.00 | 0.13 | 0.10 | 50 | 1013.4 |
| 20260509174205 | 19 | 5 | 1.6 | 9.7 | 0.00 | 0.13 | 0.10 | 50 | 1013.4 |
| 20260509173205 | 19 | 5 | 1.6 | 8.0 | 0.00 | 0.13 | 0.10 | 50 | 1013.4 |
| 20260509172705 | 19 | 5 | 1.6 | 11.3 | 0.00 | 0.13 | 0.10 | 50 | 1013.4 |
| 20260509172204 | 20 | 9 | 1.6 | 11.3 | 0.00 | 0.13 | 0.10 | 49 | 1013.4 |
| 20260509171705 | 19 | 9 | 1.6 | 11.3 | 0.00 | 0.13 | 0.10 | 50 | 1013.3 |
| 20260509171204 | 19 | 9 | 1.6 | 9.7 | 0.00 | 0.13 | 0.10 | 49 | 1013.3 |
| 20260509170705 | 19 | 9 | 3.2 | 9.7 | 0.00 | 0.13 | 0.10 | 48 | 1013.3 |
| 20260509170205 | 19 | 5 | 3.2 | 8.0 | 0.00 | 0.13 | 0.10 | 48 | 1013.3 |
| 20260509165705 | 20 | 5 | 3.2 | 8.0 | 0.00 | 0.13 | 0.10 | 49 | 1013.4 |
| 20260509165208 | 20 | 5 | 1.6 | 8.0 | 0.00 | 0.13 | 0.10 | 49 | 1013.3 |
| 20260509164705 | 20 | 5 | 1.6 | 8.0 | 0.00 | 0.13 | 0.10 | 48 | 1013.3 |
| 20260509164206 | 20 | 5 | 3.2 | 9.7 | 0.00 | 0.13 | 0.10 | 50 | 1013.4 |
| 20260509163705 | 20 | 5 | 3.2 | 9.7 | 0.00 | 0.13 | 0.10 | 48 | 1013.3 |
| 20260509163205 | 20 | 5 | 1.6 | 9.7 | 0.00 | 0.13 | 0.10 | 49 | 1013.5 |
| 20260509162705 | 20 | 0 | 1.6 | 9.7 | 0.00 | 0.13 | 0.10 | 49 | 1013.5 |
| 20260509162205 | 20 | 0 | 3.2 | 9.7 | 0.00 | 0.13 | 0.10 | 49 | 1013.5 |
| 20260509161705 | 20 | 355 | 3.2 | 9.7 | 0.00 | 0.13 | 0.10 | 48 | 1013.5 |
| 20260509161234 | 20 | 355 | 3.2 | 12.9 | 0.00 | 0.13 | 0.10 | 47 | 1013.5 |
| 20260509160705 | 20 | 355 | 3.2 | 12.9 | 0.00 | 0.13 | 0.10 | 48 | 1013.5 |
| 20260509160205 | 20 | 355 | 4.8 | 12.9 | 0.00 | 0.13 | 0.10 | 50 | 1013.6 |
| 20260509155706 | 20 | 355 | 4.8 | 9.7 | 0.00 | 0.15 | 0.10 | 49 | 1013.7 |
| 20260509155205 | 20 | 355 | 3.2 | 16.1 | 0.00 | 0.15 | 0.10 | 48 | 1013.8 |
| 20260509154206 | 20 | 351 | 4.8 | 14.5 | 0.00 | 0.15 | 0.10 | 49 | 1013.8 |
| 20260509153705 | 20 | 5 | 4.8 | 14.5 | 0.00 | 0.15 | 0.10 | 49 | 1013.8 |
| 20260509153205 | 20 | 5 | 3.2 | 14.5 | 0.00 | 0.15 | 0.10 | 49 | 1013.8 |
| 20260509152205 | 20 | 37 | 1.6 | 14.5 | 0.03 | 0.15 | 0.10 | 50 | 1013.9 |
| 20260509151705 | 20 | 82 | 1.6 | 14.5 | 0.03 | 0.15 | 0.10 | 49 | 1013.9 |
| 20260509150705 | 20 | 85 | 3.2 | 9.7 | 0.03 | 0.15 | 0.10 | 48 | 1014.0 |
| 20260509150206 | 20 | 39 | 3.2 | 9.7 | 0.03 | 0.15 | 0.10 | 51 | 1013.9 |
| 20260509145705 | 20 | 34 | 3.2 | 8.0 | 0.03 | 0.15 | 0.10 | 49 | 1014.0 |
| 20260509145205 | 20 | 349 | 3.2 | 9.7 | 0.03 | 0.15 | 0.10 | 49 | 1014.0 |
| 20260509144709 | 20 | 348 | 3.2 | 12.9 | 0.03 | 0.15 | 0.10 | 48 | 1014.0 |
| 20260509144206 | 20 | 351 | 4.8 | 14.5 | 0.03 | 0.15 | 0.10 | 49 | 1014.0 |
| 20260509143205 | 20 | 64 | 3.2 | 9.7 | 0.03 | 0.15 | 0.10 | 49 | 1014.2 |
| 20260509142705 | 20 | 36 | 1.6 | 6.4 | 0.00 | 0.13 | 0.08 | 48 | 1014.3 |